Home   Weather   Jaén   Past weeks

Flag for Spain Past Weather in Jaén, Spain — Yesterday and Last 2 Weeks

Now
54 °F

Light rain. Mostly cloudy.


Feels Like: 50 °F
Forecast: 52 / 64 °F
Wind: 10 mph from East

Location: Granada / Aeropuerto

Current Time: Apr 28, 2017 at 10:17:18 pm

Latest Report: Apr 28, 2017 at 9:00 pm


Visibility: 6 mi

Pressure: 29.92 "Hg (27.96 "Hg at 565m altitude)

Humidity: 88%

Dew Point: 50 °F

Location of JaénLocation

Past Weather in Jaén — Graph

°F

Jaén Temperature Yesterday

Maximum temperature yesterday: 72 °F (at 4:30 pm)
Minimum temperature yesterday: 54 °F (at 5:00 am)
Average temperature yesterday: 61 °F

High & Low Weather Summary for the Past Weeks

 TemperatureHumidityPressure
High90 °F (Apr 18, 4:00 pm)100% (Apr 28, 11:00 am)30.21 "Hg (Apr 28, 11:00 am)
Low45 °F (Apr 22, 7:30 am)13% (Apr 18, 3:30 pm)29.80 "Hg (Apr 25, 7:00 pm)
Average64 °F54%30.01 "Hg
* Reported Apr 13 9:00 pm — Apr 28 9:00 pm, Jaén, Weather by CustomWeather, © 2017

Note: Actual official high and low records may vary slightly from our data, if they occured in-between our weather recording intervals... More about our weather records

Advertising

Jaén Weather History for the Previous 24 Hours

Scroll right to see more
 ConditionsComfort  
Time TempWeatherWind HumidityBarometerVisibility
9:00 pm
Fri, Apr 28
54 °FLight rain. Mostly cloudy.10 mph88%29.92 "Hg6 mi
8:30 pm54 °FLight rain. Mostly cloudy.5 mph94%29.92 "Hg4 mi
8:00 pm54 °FLight rain. Mostly cloudy.5 mph94%29.89 "HgN/A
7:30 pm54 °FLight rain. Mostly cloudy.14 mph88%29.89 "HgN/A
7:00 pm54 °FLight rain. Mostly cloudy.6 mph94%29.89 "HgN/A
6:30 pm55 °FMostly cloudy.9 mph88%29.89 "HgN/A
6:00 pm55 °FMostly cloudy.10 mph88%29.89 "HgN/A
5:30 pm55 °FMostly cloudy.13 mph88%29.89 "HgN/A
5:00 pm55 °FMostly cloudy.8 mph88%29.89 "HgN/A
4:30 pm57 °FLight rain. Mostly cloudy.3 mph88%29.89 "HgN/A
4:00 pm57 °FLight rain. Mostly cloudy.No wind82%29.89 "HgN/A
3:30 pm57 °FLight rain. Mostly cloudy.1 mph82%29.89 "HgN/A
3:00 pm55 °FLight rain. Mostly cloudy.No wind88%29.89 "HgN/A
2:30 pm55 °FLight rain. Mostly cloudy.1 mph94%29.89 "HgN/A
1:30 pm54 °FLight rain. Mostly cloudy.1 mph94%29.89 "Hg6 mi
1:00 pm54 °FLight rain. Mostly cloudy.1 mph94%29.89 "Hg6 mi
12:30 pm54 °FLight rain. Mostly cloudy.No wind94%29.89 "Hg6 mi
12:00 pm54 °FLight rain. Mostly cloudy.No wind94%29.89 "Hg6 mi
11:30 am52 °FLight rain. Mostly cloudy.1 mph94%29.89 "Hg5 mi
11:00 am52 °FRain. Mostly cloudy.2 mph100%29.89 "Hg4 mi
10:30 am54 °FLight rain. Partly sunny.3 mph94%29.89 "HgN/A
9:30 am54 °FLight rain. Partly sunny.3 mph88%29.86 "HgN/A
9:00 am54 °FLight rain. Partly sunny.2 mph88%29.86 "HgN/A
8:30 am54 °FRain. Partly sunny.3 mph88%29.86 "HgN/A
8:00 am54 °FPartly sunny.7 mph88%29.83 "HgN/A
7:30 am54 °FLight rain. Partly sunny.6 mph88%29.83 "HgN/A
7:00 am54 °FRain. Passing clouds.5 mph94%29.83 "HgN/A
6:30 am54 °FLight rain. Passing clouds.9 mph88%29.83 "HgN/A
6:00 am54 °FLight rain. Mostly cloudy.10 mph88%29.83 "HgN/A
5:30 am54 °FLight rain. Passing clouds.7 mph88%29.83 "HgN/A
5:00 am54 °FOvercast.6 mph88%29.83 "HgN/A
4:30 am55 °FMostly cloudy.2 mph88%29.83 "HgN/A
4:00 am55 °FPassing clouds.2 mph88%29.86 "HgN/A
3:30 am55 °FMostly cloudy.3 mph88%29.86 "HgN/A
3:00 am55 °FPartly cloudy.2 mph94%29.86 "HgN/A
2:30 am55 °FMostly cloudy.No wind94%29.86 "HgN/A
2:00 am55 °FLight rain. Partly cloudy.5 mph94%29.89 "HgN/A
1:30 am57 °FRain. Passing clouds.7 mph88%29.86 "HgN/A
1:00 am57 °FMostly cloudy.10 mph88%29.86 "HgN/A
12:30 am59 °FLight rain. Mostly cloudy.1 mph82%29.86 "HgN/A
12:00 am59 °FPassing clouds.6 mph77%29.86 "HgN/A
11:30 pm
Thu, Apr 27
61 °FClear.2 mph68%29.86 "Hg10 mi
11:00 pm61 °FPartly cloudy.1 mph72%29.86 "HgN/A
10:30 pm61 °FPartly cloudy.3 mph72%29.86 "HgN/A
10:00 pm61 °FPartly cloudy.6 mph72%29.83 "HgN/A
Weather by CustomWeather, © 2017

See weather overviewHow to use our weather pages